Home > Time Zones > World Clock > Weather > Iran > Bijar > Past weeks

Flag for Iran Weather past 2 weeks in Bijar, Iran

Now
90 °F

Passing clouds.


Feels Like: 86 °F
Forecast: 68 / 100 °F
Wind: 2 mph from North

Location: Sanandaj Airport

Current Time: Jul 30, 2014 at 10:12:28 PM

Latest Report: Jul 30, 2014 at 8:22 PM


Visibility: N/A

Pressure: 29.77 "Hg

Humidity: 20%

Dew point: 43 °F

Location of BijarLocation

Historic Weather in Bijar — Graph

°F

Bijar temperature yesterday

Maximum temperature yesterday: 95 °F (at 5:00 PM)
Minimum temperature yesterday: 70 °F (at 6:26 AM)
Average temperature yesterday: 83 °F

Past Weeks' High & Low Weather Summary

 TemperatureHumidityPressure
High106 °F (Jul 17, 2:30 PM)49% (Jul 21, 7:00 AM)29.95 "Hg (Jul 21, 7:00 AM)
Low57 °F (Jul 22, 6:22 AM)6% (Jul 18, 1:30 PM)29.68 "Hg (Jul 20, 4:30 PM)
Average86 °F18%29.83 "Hg
* Reported Jul 15 8:23 PM — Jul 30 8:22 PM, Bijar, Weather by CustomWeather, © 2014

Note: Actual official high and low records may vary slightly from our data, if they occured in-between our weather recording intervals... More about our weather records

Advertising

Bijar weather history for previous 24 hours

 ConditionsComfort  
Time TempWeatherWind HumidityBarometerVisibility
8:22 PM
Jul 30
90 °FPassing clouds.2 mph20%29.77 "HgN/A
6:23 PM97 °FPassing clouds.5 mph13%29.77 "HgN/A
6:00 PM95 °FPassing clouds.5 mph13%29.77 "HgN/A
5:30 PM97 °FPassing clouds.5 mph12%29.77 "HgN/A
5:00 PM97 °FSunny.5 mph14%29.80 "Hg10 mi
4:30 PM95 °FSunny.9 mph14%29.80 "Hg10 mi
3:30 PM93 °FSunny.7 mph15%29.80 "Hg10 mi
2:30 PM93 °FSunny.9 mph13%29.83 "Hg10 mi
1:30 PM90 °FSunny.7 mph15%29.86 "Hg10 mi
12:30 PM86 °FSunny.12 mph18%29.89 "Hg10 mi
11:30 AM81 °FSunny.9 mph23%29.92 "Hg10 mi
10:30 AM79 °FSunny.9 mph24%29.92 "Hg10 mi
9:30 AM75 °FSunny.12 mph29%29.92 "Hg10 mi
9:00 AM73 °FSunny.12 mph31%29.92 "Hg10 mi
8:30 AM72 °FSunny.14 mph31%29.92 "Hg10 mi
8:00 AM70 °FSunny.14 mph33%29.92 "Hg10 mi
7:30 AM68 °FClear.9 mph35%29.92 "Hg10 mi
7:00 AM68 °FClear.9 mph35%29.92 "Hg10 mi
6:30 AM68 °FClear.12 mph35%29.92 "Hg10 mi
5:21 AM70 °FClear.9 mph33%29.89 "Hg10 mi
11:20 PM
Jul 29
77 °FClear.7 mph24%29.89 "Hg10 mi
10:24 PM81 °FClear.14 mph21%29.86 "Hg10 mi
Weather by CustomWeather, © 2014

See weather overviewHow to use our weather pages